contact:dominique.lefevre@mio.osupytheas.fr, maurice.libes@osupytheas.fr, didier.mallarino@osupytheas.fr
Project:EMSO http://www.emso-fr.org/EMSO-France
Depth: 2436.0 m
Title:EMSO Ligure Ouest : Data MII capteur MICROCAT
DateTime_Computer,Latitude,Longitude,Temperature,Conductivity,Pressure,DateTime_Instrument
DateTime_Computer,Latitude,Longitude,degC,S m-1,dbar,DateTime_Instrument
2021-02-25T00:01:27Z,42.805,6.029,13.2995,4.60000,2470.11,2021-2-25T02:02:32Z
2021-02-25T00:04:30Z,42.805,6.029,13.2996,4.60001,2470.143,2021-2-25T02:05:35Z
2021-02-25T00:07:33Z,42.805,6.029,13.3000,4.60000,2470.1,2021-2-25T02:08:38Z
2021-02-25T00:10:36Z,42.805,6.029,13.2997,4.60000,2470.147,2021-2-25T02:11:41Z
2021-02-25T00:13:39Z,42.805,6.029,13.2998,4.60000,2470.147,2021-2-25T02:14:44Z
2021-02-25T00:16:43Z,42.805,6.029,13.2998,4.60001,2470.133,2021-2-25T02:17:47Z
2021-02-25T00:19:46Z,42.805,6.029,13.2998,4.60000,2470.171,2021-2-25T02:20:50Z
2021-02-25T00:22:49Z,42.805,6.029,13.2998,4.60001,2470.11,2021-2-25T02:23:53Z
2021-02-25T00:25:52Z,42.805,6.029,13.2996,4.60001,2470.133,2021-2-25T02:26:57Z
2021-02-25T00:28:55Z,42.805,6.029,13.2993,4.60000,2470.147,2021-2-25T02:30:00Z
2021-02-25T00:31:58Z,42.805,6.029,13.2999,4.60000,2470.133,2021-2-25T02:33:03Z
2021-02-25T00:35:01Z,42.805,6.029,13.2996,4.60000,2470.124,2021-2-25T02:36:06Z
2021-02-25T00:38:04Z,42.805,6.029,13.2995,4.60001,2470.147,2021-2-25T02:39:09Z
2021-02-25T00:41:08Z,42.805,6.029,13.2998,4.60000,2470.11,2021-2-25T02:42:12Z
2021-02-25T00:44:11Z,42.805,6.029,13.2998,4.60001,2470.133,2021-2-25T02:45:15Z
2021-02-25T00:47:14Z,42.805,6.029,13.2997,4.60001,2470.124,2021-2-25T02:48:18Z
2021-02-25T00:50:17Z,42.805,6.029,13.2998,4.60001,2470.156,2021-2-25T02:51:22Z
2021-02-25T00:53:20Z,42.805,6.029,13.2993,4.60001,2470.156,2021-2-25T02:54:25Z
2021-02-25T00:56:23Z,42.805,6.029,13.3000,4.60002,2470.147,2021-2-25T02:57:28Z
2021-02-25T00:59:26Z,42.805,6.029,13.3000,4.60001,2470.133,2021-2-25T03:00:31Z
2021-02-25T01:02:29Z,42.805,6.029,13.2996,4.60001,2470.11,2021-2-25T03:03:34Z
2021-02-25T01:05:33Z,42.805,6.029,13.2996,4.59999,2470.133,2021-2-25T03:06:37Z
2021-02-25T01:08:36Z,42.805,6.029,13.3001,4.60001,2470.147,2021-2-25T03:09:40Z
2021-02-25T01:11:39Z,42.805,6.029,13.2996,4.60002,2470.156,2021-2-25T03:12:43Z
2021-02-25T01:14:42Z,42.805,6.029,13.3000,4.60002,2470.11,2021-2-25T03:15:47Z
2021-02-25T01:17:45Z,42.805,6.029,13.2997,4.60002,2470.119,2021-2-25T03:18:50Z
2021-02-25T01:20:48Z,42.805,6.029,13.3003,4.60002,2470.156,2021-2-25T03:21:53Z
2021-02-25T01:23:51Z,42.805,6.029,13.2998,4.60003,2470.147,2021-2-25T03:24:56Z
2021-02-25T01:26:54Z,42.805,6.029,13.2997,4.60002,2470.171,2021-2-25T03:27:59Z
2021-02-25T01:29:57Z,42.805,6.029,13.2998,4.60002,2470.156,2021-2-25T03:31:02Z
2021-02-25T01:33:01Z,42.805,6.029,13.2996,4.60003,2470.171,2021-2-25T03:34:05Z
2021-02-25T01:36:04Z,42.805,6.029,13.2999,4.60003,2470.147,2021-2-25T03:37:08Z
2021-02-25T01:39:07Z,42.805,6.029,13.2997,4.60003,2470.133,2021-2-25T03:40:11Z
2021-02-25T01:42:10Z,42.805,6.029,13.2996,4.60002,2470.147,2021-2-25T03:43:15Z
2021-02-25T01:45:13Z,42.805,6.029,13.2998,4.60003,2470.156,2021-2-25T03:46:18Z
2021-02-25T01:48:16Z,42.805,6.029,13.3000,4.60003,2470.133,2021-2-25T03:49:21Z
2021-02-25T01:51:19Z,42.805,6.029,13.3000,4.60005,2470.147,2021-2-25T03:52:24Z
2021-02-25T01:54:22Z,42.805,6.029,13.2998,4.60004,2470.156,2021-2-25T03:55:27Z
2021-02-25T01:57:26Z,42.805,6.029,13.3000,4.60003,2470.133,2021-2-25T03:58:30Z
2021-02-25T02:00:29Z,42.805,6.029,13.2997,4.60003,2470.171,2021-2-25T04:01:33Z
2021-02-25T02:03:32Z,42.805,6.029,13.3000,4.60004,2470.156,2021-2-25T04:04:36Z
2021-02-25T02:06:35Z,42.805,6.029,13.3003,4.60004,2470.194,2021-2-25T04:07:40Z
2021-02-25T02:09:38Z,42.805,6.029,13.3000,4.60003,2470.133,2021-2-25T04:10:43Z
2021-02-25T02:12:41Z,42.805,6.029,13.3000,4.60004,2470.18,2021-2-25T04:13:46Z
2021-02-25T02:15:44Z,42.805,6.029,13.2998,4.60004,2470.171,2021-2-25T04:16:49Z
2021-02-25T02:18:47Z,42.805,6.029,13.3003,4.60006,2470.156,2021-2-25T04:19:52Z
2021-02-25T02:21:51Z,42.805,6.029,13.3002,4.60005,2470.156,2021-2-25T04:22:55Z
2021-02-25T02:24:54Z,42.805,6.029,13.2999,4.60006,2470.194,2021-2-25T04:25:58Z
2021-02-25T02:27:57Z,42.805,6.029,13.3000,4.60006,2470.18,2021-2-25T04:29:01Z
2021-02-25T02:31:00Z,42.805,6.029,13.3001,4.60006,2470.217,2021-2-25T04:32:05Z
2021-02-25T02:34:03Z,42.805,6.029,13.3000,4.60005,2470.156,2021-2-25T04:35:08Z
2021-02-25T02:37:06Z,42.805,6.029,13.3005,4.60006,2470.171,2021-2-25T04:38:11Z
2021-02-25T02:40:09Z,42.805,6.029,13.3004,4.60007,2470.194,2021-2-25T04:41:14Z
2021-02-25T02:43:12Z,42.805,6.029,13.3004,4.60006,2470.18,2021-2-25T04:44:17Z
2021-02-25T02:46:16Z,42.805,6.029,13.2999,4.60006,2470.217,2021-2-25T04:47:20Z
2021-02-25T02:49:19Z,42.805,6.029,13.2999,4.60007,2470.194,2021-2-25T04:50:23Z
2021-02-25T02:52:22Z,42.805,6.029,13.3004,4.60009,2470.18,2021-2-25T04:53:26Z
2021-02-25T02:55:25Z,42.805,6.029,13.3001,4.60009,2470.203,2021-2-25T04:56:30Z
2021-02-25T02:58:28Z,42.805,6.029,13.3003,4.60007,2470.18,2021-2-25T04:59:33Z
2021-02-25T03:01:31Z,42.805,6.029,13.3001,4.60007,2470.24,2021-2-25T05:02:36Z
2021-02-25T03:04:34Z,42.805,6.029,13.3001,4.60007,2470.227,2021-2-25T05:05:39Z
2021-02-25T03:07:37Z,42.805,6.029,13.3002,4.60008,2470.217,2021-2-25T05:08:42Z
2021-02-25T03:10:41Z,42.805,6.029,13.3002,4.60009,2470.227,2021-2-25T05:11:45Z
2021-02-25T03:13:44Z,42.805,6.029,13.3003,4.60009,2470.217,2021-2-25T05:14:48Z
2021-02-25T03:16:47Z,42.805,6.029,13.3005,4.60009,2470.24,2021-2-25T05:17:51Z
2021-02-25T03:19:50Z,42.805,6.029,13.3000,4.60008,2470.24,2021-2-25T05:20:55Z
2021-02-25T03:22:53Z,42.805,6.029,13.3006,4.60008,2470.227,2021-2-25T05:23:58Z
2021-02-25T03:25:56Z,42.805,6.029,13.3002,4.60008,2470.25,2021-2-25T05:27:01Z
2021-02-25T03:28:59Z,42.805,6.029,13.3001,4.60008,2470.24,2021-2-25T05:30:04Z
2021-02-25T03:32:02Z,42.805,6.029,13.3003,4.60007,2470.203,2021-2-25T05:33:07Z
2021-02-25T03:35:05Z,42.805,6.029,13.3002,4.60007,2470.25,2021-2-25T05:36:10Z
2021-02-25T03:38:09Z,42.805,6.029,13.3003,4.60008,2470.273,2021-2-25T05:39:13Z
2021-02-25T03:41:12Z,42.805,6.029,13.3000,4.60008,2470.264,2021-2-25T05:42:16Z
2021-02-25T03:44:15Z,42.805,6.029,13.3001,4.60008,2470.264,2021-2-25T05:45:20Z
2021-02-25T03:47:18Z,42.805,6.029,13.3003,4.60008,2470.25,2021-2-25T05:48:23Z
2021-02-25T03:50:21Z,42.805,6.029,13.3005,4.60007,2470.264,2021-2-25T05:51:26Z
2021-02-25T03:53:24Z,42.805,6.029,13.3002,4.60006,2470.273,2021-2-25T05:54:29Z
2021-02-25T03:56:27Z,42.805,6.029,13.3000,4.60006,2470.31,2021-2-25T05:57:32Z
2021-02-25T03:59:31Z,42.805,6.029,13.3007,4.60006,2470.273,2021-2-25T06:00:35Z
2021-02-25T04:02:34Z,42.805,6.029,13.3003,4.60005,2470.287,2021-2-25T06:03:38Z
2021-02-25T04:05:37Z,42.805,6.029,13.2998,4.60006,2470.273,2021-2-25T06:06:41Z
2021-02-25T04:08:40Z,42.805,6.029,13.3001,4.60005,2470.26,2021-2-25T06:09:45Z
2021-02-25T04:11:43Z,42.805,6.029,13.2998,4.60005,2470.297,2021-2-25T06:12:48Z
2021-02-25T04:14:46Z,42.805,6.029,13.2999,4.60006,2470.297,2021-2-25T06:15:51Z
2021-02-25T04:17:49Z,42.805,6.029,13.3001,4.60006,2470.297,2021-2-25T06:18:54Z
2021-02-25T04:20:52Z,42.805,6.029,13.2998,4.60005,2470.31,2021-2-25T06:21:57Z
2021-02-25T04:23:55Z,42.805,6.029,13.2999,4.60005,2470.31,2021-2-25T06:25:00Z
2021-02-25T04:26:59Z,42.805,6.029,13.2998,4.60005,2470.32,2021-2-25T06:28:03Z
2021-02-25T04:30:02Z,42.805,6.029,13.3000,4.60006,2470.32,2021-2-25T06:31:06Z
2021-02-25T04:33:05Z,42.805,6.029,13.3000,4.60005,2470.273,2021-2-25T06:34:10Z
2021-02-25T04:36:08Z,42.805,6.029,13.3002,4.60005,2470.334,2021-2-25T06:37:13Z
2021-02-25T04:39:11Z,42.805,6.029,13.2999,4.60005,2470.31,2021-2-25T06:40:16Z
2021-02-25T04:42:14Z,42.805,6.029,13.3001,4.60006,2470.31,2021-2-25T06:43:19Z
2021-02-25T04:45:17Z,42.805,6.029,13.3000,4.60006,2470.334,2021-2-25T06:46:22Z
2021-02-25T04:48:21Z,42.805,6.029,13.3002,4.60005,2470.32,2021-2-25T06:49:25Z
2021-02-25T04:51:24Z,42.805,6.029,13.3003,4.60006,2470.32,2021-2-25T06:52:28Z
2021-02-25T04:54:27Z,42.805,6.029,13.3003,4.60005,2470.31,2021-2-25T06:55:31Z
2021-02-25T04:57:30Z,42.805,6.029,13.2999,4.60006,2470.32,2021-2-25T06:58:35Z
2021-02-25T05:00:33Z,42.805,6.029,13.2999,4.60006,2470.357,2021-2-25T07:01:38Z
2021-02-25T05:03:36Z,42.805,6.029,13.3001,4.60006,2470.343,2021-2-25T07:04:41Z
2021-02-25T05:06:39Z,42.805,6.029,13.3000,4.60006,2470.334,2021-2-25T07:07:44Z
2021-02-25T05:09:42Z,42.805,6.029,13.2999,4.60006,2470.343,2021-2-25T07:10:47Z
2021-02-25T05:12:45Z,42.805,6.029,13.2999,4.60006,2470.297,2021-2-25T07:13:50Z
2021-02-25T05:15:49Z,42.805,6.029,13.3001,4.60006,2470.32,2021-2-25T07:16:53Z
2021-02-25T05:18:52Z,42.805,6.029,13.2998,4.60006,2470.343,2021-2-25T07:19:56Z
2021-02-25T05:21:55Z,42.805,6.029,13.3000,4.60007,2470.357,2021-2-25T07:23:00Z
2021-02-25T05:24:58Z,42.805,6.029,13.2998,4.60006,2470.32,2021-2-25T07:26:03Z
2021-02-25T05:28:01Z,42.805,6.029,13.3002,4.60005,2470.357,2021-2-25T07:29:06Z
2021-02-25T05:31:04Z,42.805,6.029,13.2998,4.60007,2470.32,2021-2-25T07:32:09Z
2021-02-25T05:34:07Z,42.805,6.029,13.3004,4.60006,2470.343,2021-2-25T07:35:12Z
2021-02-25T05:37:10Z,42.805,6.029,13.3003,4.60006,2470.357,2021-2-25T07:38:15Z
2021-02-25T05:40:14Z,42.805,6.029,13.3003,4.60007,2470.357,2021-2-25T07:41:18Z
2021-02-25T05:43:17Z,42.805,6.029,13.3001,4.60008,2470.38,2021-2-25T07:44:21Z
2021-02-25T05:46:20Z,42.805,6.029,13.3006,4.60009,2470.334,2021-2-25T07:47:25Z
2021-02-25T05:49:23Z,42.805,6.029,13.3000,4.60009,2470.357,2021-2-25T07:50:28Z
2021-02-25T05:52:26Z,42.805,6.029,13.3005,4.60011,2470.366,2021-2-25T07:53:31Z
2021-02-25T05:55:29Z,42.805,6.029,13.3003,4.60010,2470.38,2021-2-25T07:56:34Z
2021-02-25T05:58:32Z,42.805,6.029,13.3003,4.60010,2470.357,2021-2-25T07:59:37Z
2021-02-25T06:01:35Z,42.805,6.029,13.3003,4.60011,2470.334,2021-2-25T08:02:40Z
2021-02-25T06:04:39Z,42.805,6.029,13.3002,4.60011,2470.357,2021-2-25T08:05:43Z
2021-02-25T06:07:42Z,42.805,6.029,13.3003,4.60011,2470.366,2021-2-25T08:08:46Z
2021-02-25T06:10:45Z,42.805,6.029,13.3006,4.60011,2470.32,2021-2-25T08:11:49Z
2021-02-25T06:13:48Z,42.805,6.029,13.3006,4.60011,2470.39,2021-2-25T08:14:53Z
2021-02-25T06:16:51Z,42.805,6.029,13.3008,4.60011,2470.343,2021-2-25T08:17:56Z
2021-02-25T06:19:54Z,42.805,6.029,13.3009,4.60011,2470.366,2021-2-25T08:20:59Z
2021-02-25T06:22:57Z,42.805,6.029,13.3007,4.60011,2470.343,2021-2-25T08:24:02Z
2021-02-25T06:26:00Z,42.805,6.029,13.3004,4.60011,2470.32,2021-2-25T08:27:05Z
2021-02-25T06:29:04Z,42.805,6.029,13.3004,4.60012,2470.366,2021-2-25T08:30:08Z
2021-02-25T06:32:07Z,42.805,6.029,13.3005,4.60012,2470.32,2021-2-25T08:33:11Z
2021-02-25T06:35:10Z,42.805,6.029,13.3006,4.60011,2470.343,2021-2-25T08:36:14Z
2021-02-25T06:38:13Z,42.805,6.029,13.3007,4.60011,2470.38,2021-2-25T08:39:18Z
2021-02-25T06:41:16Z,42.805,6.029,13.3006,4.60011,2470.38,2021-2-25T08:42:21Z
2021-02-25T06:44:19Z,42.805,6.029,13.3004,4.60011,2470.366,2021-2-25T08:45:24Z
2021-02-25T06:47:22Z,42.805,6.029,13.3004,4.60010,2470.366,2021-2-25T08:48:27Z
2021-02-25T06:50:25Z,42.805,6.029,13.3004,4.60010,2470.366,2021-2-25T08:51:30Z
2021-02-25T06:53:29Z,42.805,6.029,13.3008,4.60009,2470.334,2021-2-25T08:54:33Z
2021-02-25T06:56:32Z,42.805,6.029,13.3004,4.60009,2470.343,2021-2-25T08:57:36Z
2021-02-25T06:59:35Z,42.805,6.029,13.3001,4.60010,2470.343,2021-2-25T09:00:39Z
2021-02-25T07:02:38Z,42.805,6.029,13.3001,4.60008,2470.366,2021-2-25T09:03:43Z
2021-02-25T07:05:41Z,42.805,6.029,13.3003,4.60008,2470.357,2021-2-25T09:06:46Z
2021-02-25T07:08:44Z,42.805,6.029,13.3000,4.60008,2470.357,2021-2-25T09:09:49Z
2021-02-25T07:11:47Z,42.805,6.029,13.3001,4.60008,2470.366,2021-2-25T09:12:52Z
2021-02-25T07:14:50Z,42.805,6.029,13.3004,4.60006,2470.366,2021-2-25T09:15:55Z
2021-02-25T07:17:54Z,42.805,6.029,13.3002,4.60006,2470.366,2021-2-25T09:18:58Z
2021-02-25T07:20:57Z,42.805,6.029,13.2998,4.60005,2470.366,2021-2-25T09:22:01Z
2021-02-25T07:24:00Z,42.805,6.029,13.2997,4.60002,2470.343,2021-2-25T09:25:04Z
2021-02-25T07:27:03Z,42.805,6.029,13.3001,4.60001,2470.38,2021-2-25T09:28:08Z
2021-02-25T07:30:06Z,42.805,6.029,13.2998,4.60000,2470.357,2021-2-25T09:31:11Z
2021-02-25T07:33:09Z,42.805,6.029,13.2993,4.60000,2470.366,2021-2-25T09:34:14Z
2021-02-25T07:36:12Z,42.805,6.029,13.2994,4.60000,2470.343,2021-2-25T09:37:17Z
2021-02-25T07:39:15Z,42.805,6.029,13.2997,4.60000,2470.343,2021-2-25T09:40:20Z
2021-02-25T07:42:19Z,42.805,6.029,13.2997,4.60000,2470.38,2021-2-25T09:43:23Z
2021-02-25T07:45:22Z,42.805,6.029,13.2993,4.59999,2470.32,2021-2-25T09:46:26Z
2021-02-25T07:48:25Z,42.805,6.029,13.2993,4.59999,2470.32,2021-2-25T09:49:29Z
2021-02-25T07:51:28Z,42.805,6.029,13.2990,4.60001,2470.357,2021-2-25T09:52:33Z
2021-02-25T07:54:31Z,42.805,6.029,13.2992,4.59999,2470.334,2021-2-25T09:55:36Z
2021-02-25T07:57:34Z,42.805,6.029,13.2993,4.59999,2470.366,2021-2-25T09:58:39Z
2021-02-25T08:00:37Z,42.805,6.029,13.2995,4.59999,2470.366,2021-2-25T10:01:42Z
2021-02-25T08:03:40Z,42.805,6.029,13.2992,4.60000,2470.32,2021-2-25T10:04:45Z
2021-02-25T08:06:44Z,42.805,6.029,13.2991,4.59999,2470.357,2021-2-25T10:07:48Z
2021-02-25T08:09:47Z,42.805,6.029,13.2994,4.59999,2470.334,2021-2-25T10:10:51Z
2021-02-25T08:12:50Z,42.805,6.029,13.2991,4.59999,2470.334,2021-2-25T10:13:55Z
2021-02-25T08:15:53Z,42.805,6.029,13.2996,4.59998,2470.334,2021-2-25T10:16:58Z
2021-02-25T08:18:56Z,42.805,6.029,13.2998,4.59998,2470.334,2021-2-25T10:20:01Z
2021-02-25T08:21:59Z,42.805,6.029,13.2993,4.59998,2470.343,2021-2-25T10:23:04Z
2021-02-25T08:25:02Z,42.805,6.029,13.2998,4.59999,2470.32,2021-2-25T10:26:07Z
2021-02-25T08:28:05Z,42.805,6.029,13.2998,4.59998,2470.334,2021-2-25T10:29:10Z
2021-02-25T08:31:09Z,42.805,6.029,13.2998,4.59999,2470.357,2021-2-25T10:32:13Z
2021-02-25T08:34:12Z,42.805,6.029,13.2993,4.59999,2470.32,2021-2-25T10:35:16Z
2021-02-25T08:37:15Z,42.805,6.029,13.3000,4.59999,2470.32,2021-2-25T10:38:20Z
2021-02-25T08:40:18Z,42.805,6.029,13.2998,4.59999,2470.357,2021-2-25T10:41:23Z
2021-02-25T08:43:21Z,42.805,6.029,13.2997,4.60001,2470.31,2021-2-25T10:44:26Z
2021-02-25T08:46:24Z,42.805,6.029,13.3000,4.59999,2470.273,2021-2-25T10:47:29Z
2021-02-25T08:49:27Z,42.805,6.029,13.2994,4.59999,2470.343,2021-2-25T10:50:32Z
2021-02-25T08:52:31Z,42.805,6.029,13.2995,4.59999,2470.297,2021-2-25T10:53:35Z
2021-02-25T08:55:34Z,42.805,6.029,13.2998,4.59999,2470.32,2021-2-25T10:56:38Z
2021-02-25T08:58:37Z,42.805,6.029,13.2996,4.59999,2470.297,2021-2-25T10:59:41Z
2021-02-25T09:01:40Z,42.805,6.029,13.3000,4.59999,2470.31,2021-2-25T11:02:45Z
2021-02-25T09:04:43Z,42.805,6.029,13.2995,4.59999,2470.334,2021-2-25T11:05:48Z
2021-02-25T09:07:46Z,42.805,6.029,13.2993,4.59999,2470.297,2021-2-25T11:08:51Z
2021-02-25T09:10:49Z,42.805,6.029,13.2997,4.59998,2470.334,2021-2-25T11:11:54Z
2021-02-25T09:13:52Z,42.805,6.029,13.2995,4.59999,2470.297,2021-2-25T11:14:57Z
2021-02-25T09:16:56Z,42.805,6.029,13.2996,4.59998,2470.31,2021-2-25T11:18:00Z
2021-02-25T09:19:59Z,42.805,6.029,13.2993,4.59997,2470.31,2021-2-25T11:21:03Z
2021-02-25T09:23:02Z,42.805,6.029,13.2993,4.59998,2470.273,2021-2-25T11:24:06Z
2021-02-25T09:26:05Z,42.805,6.029,13.2996,4.59997,2470.297,2021-2-25T11:27:10Z
2021-02-25T09:29:08Z,42.805,6.029,13.2993,4.59996,2470.297,2021-2-25T11:30:13Z
2021-02-25T09:32:11Z,42.805,6.029,13.2991,4.59996,2470.334,2021-2-25T11:33:16Z
2021-02-25T09:35:14Z,42.805,6.029,13.2993,4.59996,2470.31,2021-2-25T11:36:19Z
2021-02-25T09:38:17Z,42.805,6.029,13.2993,4.59996,2470.273,2021-2-25T11:39:22Z
2021-02-25T09:41:21Z,42.805,6.029,13.2994,4.59996,2470.31,2021-2-25T11:42:25Z
2021-02-25T09:44:24Z,42.805,6.029,13.2990,4.59996,2470.297,2021-2-25T11:45:28Z
2021-02-25T09:47:27Z,42.805,6.029,13.2993,4.59996,2470.273,2021-2-25T11:48:32Z
2021-02-25T09:50:30Z,42.805,6.029,13.2993,4.59997,2470.31,2021-2-25T11:51:35Z
2021-02-25T09:53:33Z,42.805,6.029,13.2994,4.59996,2470.25,2021-2-25T11:54:38Z
2021-02-25T09:56:36Z,42.805,6.029,13.2993,4.59996,2470.297,2021-2-25T11:57:41Z
2021-02-25T09:59:39Z,42.805,6.029,13.2990,4.59996,2470.287,2021-2-25T12:00:44Z
2021-02-25T10:02:42Z,42.805,6.029,13.2993,4.59996,2470.287,2021-2-25T12:03:47Z
2021-02-25T10:05:46Z,42.805,6.029,13.2991,4.59995,2470.273,2021-2-25T12:06:50Z
2021-02-25T10:08:49Z,42.805,6.029,13.2996,4.59995,2470.25,2021-2-25T12:09:53Z
2021-02-25T10:11:52Z,42.805,6.029,13.2988,4.59996,2470.264,2021-2-25T12:12:57Z
2021-02-25T10:14:55Z,42.805,6.029,13.2991,4.59996,2470.273,2021-2-25T12:16:00Z
2021-02-25T10:17:58Z,42.805,6.029,13.2991,4.59996,2470.287,2021-2-25T12:19:03Z
2021-02-25T10:21:01Z,42.805,6.029,13.2993,4.59995,2470.227,2021-2-25T12:22:06Z
2021-02-25T10:24:04Z,42.805,6.029,13.2992,4.59995,2470.25,2021-2-25T12:25:09Z
2021-02-25T10:27:07Z,42.805,6.029,13.2991,4.59996,2470.227,2021-2-25T12:28:12Z
2021-02-25T10:30:11Z,42.805,6.029,13.2994,4.59995,2470.264,2021-2-25T12:31:15Z
2021-02-25T10:33:14Z,42.805,6.029,13.2994,4.59997,2470.24,2021-2-25T12:34:18Z
2021-02-25T10:36:17Z,42.805,6.029,13.2993,4.59996,2470.227,2021-2-25T12:37:22Z
2021-02-25T10:39:20Z,42.805,6.029,13.2990,4.59996,2470.25,2021-2-25T12:40:25Z
2021-02-25T10:42:23Z,42.805,6.029,13.2993,4.59995,2470.264,2021-2-25T12:43:28Z
2021-02-25T10:45:26Z,42.805,6.029,13.2991,4.59995,2470.264,2021-2-25T12:46:31Z
2021-02-25T10:48:29Z,42.805,6.029,13.2993,4.59996,2470.227,2021-2-25T12:49:34Z
2021-02-25T10:51:33Z,42.805,6.029,13.2990,4.59996,2470.227,2021-2-25T12:52:37Z
2021-02-25T10:54:36Z,42.805,6.029,13.2991,4.59995,2470.227,2021-2-25T12:55:40Z
2021-02-25T10:57:39Z,42.805,6.029,13.2991,4.59995,2470.24,2021-2-25T12:58:43Z
2021-02-25T11:00:42Z,42.805,6.029,13.2990,4.59995,2470.24,2021-2-25T13:01:47Z
2021-02-25T11:03:45Z,42.805,6.029,13.2993,4.59996,2470.25,2021-2-25T13:04:50Z
2021-02-25T11:06:48Z,42.805,6.029,13.2991,4.59996,2470.227,2021-2-25T13:07:53Z
2021-02-25T11:09:51Z,42.805,6.029,13.2992,4.59995,2470.217,2021-2-25T13:10:56Z
2021-02-25T11:12:54Z,42.805,6.029,13.2991,4.59994,2470.227,2021-2-25T13:13:59Z
2021-02-25T11:15:58Z,42.805,6.029,13.2992,4.59994,2470.24,2021-2-25T13:17:02Z
2021-02-25T11:19:01Z,42.805,6.029,13.2991,4.59994,2470.227,2021-2-25T13:20:05Z
2021-02-25T11:22:04Z,42.805,6.029,13.2994,4.59996,2470.24,2021-2-25T13:23:08Z
2021-02-25T11:25:07Z,42.805,6.029,13.2991,4.59994,2470.24,2021-2-25T13:26:12Z
2021-02-25T11:28:10Z,42.805,6.029,13.2991,4.59994,2470.227,2021-2-25T13:29:15Z
2021-02-25T11:31:13Z,42.805,6.029,13.2987,4.59994,2470.217,2021-2-25T13:32:18Z
2021-02-25T11:34:16Z,42.805,6.029,13.2986,4.59995,2470.217,2021-2-25T13:35:21Z
2021-02-25T11:37:19Z,42.805,6.029,13.2992,4.59994,2470.217,2021-2-25T13:38:24Z
2021-02-25T11:40:23Z,42.805,6.029,13.2994,4.59994,2470.227,2021-2-25T13:41:27Z
2021-02-25T11:43:26Z,42.805,6.029,13.2992,4.59994,2470.194,2021-2-25T13:44:30Z
2021-02-25T11:46:29Z,42.805,6.029,13.2992,4.59993,2470.227,2021-2-25T13:47:34Z
2021-02-25T11:49:32Z,42.805,6.029,13.2990,4.59995,2470.227,2021-2-25T13:50:37Z
2021-02-25T11:52:35Z,42.805,6.029,13.2991,4.59994,2470.227,2021-2-25T13:53:40Z
2021-02-25T11:55:38Z,42.805,6.029,13.2988,4.59995,2470.203,2021-2-25T13:56:43Z
2021-02-25T11:58:41Z,42.805,6.029,13.2994,4.59994,2470.203,2021-2-25T13:59:46Z
2021-02-25T12:01:44Z,42.805,6.029,13.2989,4.59994,2470.203,2021-2-25T14:02:49Z
2021-02-25T12:04:48Z,42.805,6.029,13.2992,4.59994,2470.171,2021-2-25T14:05:52Z
2021-02-25T12:07:51Z,42.805,6.029,13.2993,4.59995,2470.18,2021-2-25T14:08:55Z
2021-02-25T12:10:54Z,42.805,6.029,13.2991,4.59995,2470.18,2021-2-25T14:11:59Z
2021-02-25T12:13:57Z,42.805,6.029,13.2989,4.59995,2470.203,2021-2-25T14:15:02Z
2021-02-25T12:17:00Z,42.805,6.029,13.2991,4.59995,2470.18,2021-2-25T14:18:05Z
2021-02-25T12:20:03Z,42.805,6.029,13.2988,4.59995,2470.203,2021-2-25T14:21:08Z
2021-02-25T12:23:06Z,42.805,6.029,13.2991,4.59994,2470.18,2021-2-25T14:24:11Z
2021-02-25T12:26:09Z,42.805,6.029,13.2991,4.59996,2470.217,2021-2-25T14:27:14Z
2021-02-25T12:29:13Z,42.805,6.029,13.2993,4.59995,2470.194,2021-2-25T14:30:17Z
2021-02-25T12:32:16Z,42.805,6.029,13.2993,4.59995,2470.194,2021-2-25T14:33:20Z
2021-02-25T12:35:19Z,42.805,6.029,13.2991,4.59994,2470.156,2021-2-25T14:36:24Z
2021-02-25T12:38:22Z,42.805,6.029,13.2992,4.59995,2470.18,2021-2-25T14:39:27Z
2021-02-25T12:41:25Z,42.805,6.029,13.2993,4.59995,2470.194,2021-2-25T14:42:30Z
2021-02-25T12:44:28Z,42.805,6.029,13.2989,4.59996,2470.18,2021-2-25T14:45:33Z
2021-02-25T12:47:31Z,42.805,6.029,13.2992,4.59995,2470.171,2021-2-25T14:48:36Z
2021-02-25T12:50:35Z,42.805,6.029,13.2990,4.59996,2470.194,2021-2-25T14:51:39Z
2021-02-25T12:53:38Z,42.805,6.029,13.2990,4.59995,2470.171,2021-2-25T14:54:42Z
2021-02-25T12:56:41Z,42.805,6.029,13.2992,4.59996,2470.194,2021-2-25T14:57:45Z
2021-02-25T12:59:44Z,42.805,6.029,13.2990,4.59995,2470.133,2021-2-25T15:00:49Z
2021-02-25T13:02:47Z,42.805,6.029,13.2991,4.59996,2470.171,2021-2-25T15:03:52Z
2021-02-25T13:05:50Z,42.805,6.029,13.2989,4.59995,2470.194,2021-2-25T15:06:55Z
2021-02-25T13:08:53Z,42.805,6.029,13.2991,4.59994,2470.18,2021-2-25T15:09:58Z
2021-02-25T13:11:56Z,42.805,6.029,13.2991,4.59994,2470.156,2021-2-25T15:13:01Z
2021-02-25T13:15:00Z,42.805,6.029,13.2991,4.59996,2470.203,2021-2-25T15:16:04Z
2021-02-25T13:18:03Z,42.805,6.029,13.2993,4.59994,2470.156,2021-2-25T15:19:07Z
2021-02-25T13:21:06Z,42.805,6.029,13.2991,4.59994,2470.156,2021-2-25T15:22:11Z
2021-02-25T13:24:09Z,42.805,6.029,13.2992,4.59994,2470.171,2021-2-25T15:25:14Z
2021-02-25T13:27:12Z,42.805,6.029,13.2991,4.59996,2470.18,2021-2-25T15:28:17Z
2021-02-25T13:30:15Z,42.805,6.029,13.2994,4.59995,2470.156,2021-2-25T15:31:20Z
2021-02-25T13:33:18Z,42.805,6.029,13.2993,4.59996,2470.18,2021-2-25T15:34:23Z
2021-02-25T13:36:21Z,42.805,6.029,13.2993,4.59995,2470.171,2021-2-25T15:37:26Z
2021-02-25T13:39:25Z,42.805,6.029,13.2991,4.59995,2470.194,2021-2-25T15:40:29Z
2021-02-25T13:42:28Z,42.805,6.029,13.2991,4.59995,2470.156,2021-2-25T15:43:32Z
2021-02-25T13:45:31Z,42.805,6.029,13.2995,4.59996,2470.156,2021-2-25T15:46:36Z
2021-02-25T13:48:34Z,42.805,6.029,13.2991,4.59994,2470.156,2021-2-25T15:49:39Z
2021-02-25T13:51:37Z,42.805,6.029,13.2991,4.59994,2470.194,2021-2-25T15:52:42Z
2021-02-25T13:54:40Z,42.805,6.029,13.2992,4.59995,2470.171,2021-2-25T15:55:45Z
2021-02-25T13:57:43Z,42.805,6.029,13.2992,4.59994,2470.18,2021-2-25T15:58:48Z
2021-02-25T14:00:46Z,42.805,6.029,13.2993,4.59995,2470.171,2021-2-25T16:01:51Z
2021-02-25T14:03:50Z,42.805,6.029,13.2994,4.59994,2470.18,2021-2-25T16:04:54Z
2021-02-25T14:06:53Z,42.805,6.029,13.2991,4.59995,2470.171,2021-2-25T16:07:57Z
2021-02-25T14:09:56Z,42.805,6.029,13.2990,4.59994,2470.156,2021-2-25T16:11:01Z
2021-02-25T14:12:59Z,42.805,6.029,13.2990,4.59995,2470.18,2021-2-25T16:14:04Z
2021-02-25T14:16:02Z,42.805,6.029,13.2990,4.59995,2470.156,2021-2-25T16:17:07Z
2021-02-25T14:19:05Z,42.805,6.029,13.2992,4.59996,2470.18,2021-2-25T16:20:10Z
2021-02-25T14:22:08Z,42.805,6.029,13.2991,4.59995,2470.156,2021-2-25T16:23:13Z
2021-02-25T14:25:11Z,42.805,6.029,13.2990,4.59996,2470.18,2021-2-25T16:26:16Z
2021-02-25T14:28:15Z,42.805,6.029,13.2993,4.59996,2470.156,2021-2-25T16:29:19Z
2021-02-25T14:31:18Z,42.805,6.029,13.2990,4.59996,2470.156,2021-2-25T16:32:22Z
2021-02-25T14:34:21Z,42.805,6.029,13.2991,4.59995,2470.18,2021-2-25T16:35:26Z
2021-02-25T14:37:24Z,42.805,6.029,13.2991,4.59995,2470.156,2021-2-25T16:38:29Z
2021-02-25T14:40:27Z,42.805,6.029,13.2992,4.59995,2470.194,2021-2-25T16:41:32Z
2021-02-25T14:43:30Z,42.805,6.029,13.2988,4.59996,2470.194,2021-2-25T16:44:35Z
2021-02-25T14:46:33Z,42.805,6.029,13.2991,4.59995,2470.156,2021-2-25T16:47:38Z
2021-02-25T14:49:37Z,42.805,6.029,13.2991,4.59994,2470.227,2021-2-25T16:50:41Z
2021-02-25T14:52:40Z,42.805,6.029,13.2996,4.59995,2470.194,2021-2-25T16:53:44Z
2021-02-25T14:55:43Z,42.805,6.029,13.2992,4.59995,2470.203,2021-2-25T16:56:48Z
2021-02-25T14:58:46Z,42.805,6.029,13.2990,4.59994,2470.203,2021-2-25T16:59:51Z
2021-02-25T15:01:49Z,42.805,6.029,13.2993,4.59995,2470.203,2021-2-25T17:02:54Z
2021-02-25T15:04:52Z,42.805,6.029,13.2992,4.59995,2470.18,2021-2-25T17:05:57Z
2021-02-25T15:07:55Z,42.805,6.029,13.2990,4.59995,2470.217,2021-2-25T17:09:00Z
2021-02-25T15:10:58Z,42.805,6.029,13.2992,4.59994,2470.194,2021-2-25T17:12:03Z
2021-02-25T15:14:02Z,42.805,6.029,13.2992,4.59995,2470.18,2021-2-25T17:15:06Z